NOAA 16 DEB

Satellite information

Favourite Embed

Satellite Type and Status

DEBRISIN ORBIT

Key statistics

Satellite NOAA 16 DEB at a glance.

Uptime

9163

Days in orbit

Revolutions

≈ 14.5

Per day

Orbit

SSO

Sun Synchronous Orbit

Inclination

99.0

Latest

Satellite identification and parameters

Extended collection of information and parameters for NOAA 16 DEB.

Object identification

Identified? True

Debris? True

Object name: NOAA 16 DEB

International designator: 2000-055EK

Object number (NORAD): 41230

Object ID (CCSDS): 41230

Country: UNITED STATES OF AMERICA (US)

Current information (Y/N): Y

RCS size: SMALL

Orbital parameters

Period: 99.424 minutes

Inclination: 99.0074 deg

SMA: 7109.208 km

Apoapsis: 752.513 km

Periapsis: 709.633 km

RAAN: 144.8808 deg

Eccentricy: 0.00301583

Argument of periapsis: 97.316 deg

Mean anomaly: 263.1461 deg

Mean motion: 14.48341364 rev/day

Mean motion (dot): 0.00009617 rev/day2

B* drag term: 0.0025664563 1/REarth

Two-line elements (TLE)

Creation date: Oct. 22, 2025, 4:10 a.m.

Reference frame: TEME

Reference center: EARTH

Epoch: Oct. 21, 2025, 7:31 p.m. UTC

TLE line 0: 0 NOAA 16 DEB

TLE line 1: 1 41230U 00055EK 25294.81335707 .00009617 00000-0 25665-2 0 9995

TLE line 2: 2 41230 99.0074 144.8808 0030158 97.3160 263.1461 14.48341364513388

Live tracking on map

Real-time ground track for satellite NOAA 16 DEB.

In-orbit conjunctions

A list of the most updated potential collisions computed for object NOAA 16 DEB.

Target Orbit TCA Probability of collision Miss distance Type
METEOR 2-7 DEB LEO 2025-09-01 08:16:45 0.000121666 112.0 (m) DEBRIS
CZ-6A DEB LEO 2024-10-29 11:37:28 0.0001965004 676.0 (m) DEBRIS
COSMOS 1867 COOLANT LEO 2024-07-20 23:36:50 0.0001097113 412.0 (m) DEBRIS
DELTA 1 DEB SSO 2024-06-18 04:09:08 0.0001445426 68.0 (m) DEBRIS

Associated space launch

The NOAA K, L and M POES satellites begin the fifth generation of improved environmental monitoring in support of NOAA missions. The instrument payload has significant improvements and additions/deletions. The instrument changes have effected the spacecraft subsystems and data formats.

NOAA 16 DEB was lifted into orbit during the mission ‘Titan II SLV | NOAA 16’, on board a Titan II SLV space rocket.

The launch took place on Sept. 21, 2000, 10:22 a.m. from Space Launch Complex 4W.

For more information about the launch, click the button.

Launch to space Titan II SLV | NOAA 16
Titan II SLV | NOAA 16

Agency: N/A

Status: Launch Successful

Launch date: Sept. 21, 2000, 10:22 a.m. UTC

Rocket: Titan II SLV

Launch pad: Space Launch Complex 4W

Location: Vandenberg SFB, CA, USA

...

Latest news about this satellite

There are no fresh news available about this satellite. Check back as we update our databases every day.


Newsletter sign-up

Weekly statistics, charts and insights to help you stay on top of the space industry.